• In Germany
  • List of Countries
  • For 7 days
  • Water Temperature
  • Satellite Maps
  • Weather Map
  • Weather Widgets
  • user-avatar
    Login

    Hourly Weather Kaprun

    Today, 26 June, Monday

    Time Temperature Precipitation Wind Pressure Humidity
    00:00 +5°C° 0 mm 2 mps 598 mmHg 93%
    01:00 +4°C° 0 mm 2 mps 598 mmHg 92%
    02:00 +4°C° 0 mm 2 mps 597 mmHg 91%
    03:00 +4°C° 0 mm 2 mps 597 mmHg 89%
    04:00 +4°C° 0 mm 1 mps 597 mmHg 88%
    05:00 +6°C° 0 mm 1 mps 598 mmHg 83%
    06:00 +9°C° 0 mm 1 mps 599 mmHg 78%
    07:00 +11°C° 0 mm 1 mps 600 mmHg 73%
    08:00 +13°C° 0 mm 1 mps 601 mmHg 65%
    09:00 +15°C° 0 mm 1 mps 601 mmHg 57%
    10:00 +18°C° 0 mm 1 mps 602 mmHg 48%
    11:00 +19°C° 0 mm 1 mps 602 mmHg 47%
    12:00 +19°C° 0 mm 1 mps 602 mmHg 46%
    13:00 +20°C° 0 mm 1 mps 602 mmHg 45%
    14:00 +19°C° 0.1 mm 2 mps 602 mmHg 48%
    15:00 +19°C° 0.1 mm 2 mps 601 mmHg 52%
    16:00 +18°C° 0.1 mm 2 mps 601 mmHg 56%
    17:00 +17°C° 0.3 mm 2 mps 600 mmHg 66%
    18:00 +15°C° 0.3 mm 2 mps 600 mmHg 76%
    19:00 +14°C° 0.3 mm 1 mps 599 mmHg 86%
    20:00 +12°C° 0.3 mm 1 mps 598 mmHg 89%
    21:00 +10°C° 0.3 mm 1 mps 598 mmHg 92%
    22:00 +9°C° 0.3 mm 1 mps 597 mmHg 95%
    23:00 +9°C° 0.3 mm 1 mps 597 mmHg 94%

    Tomorrow, 27 June, Tuesday

    Time Temperature Precipitation Wind Pressure Humidity
    00:00 +9°C° 0.3 mm 1 mps 597 mmHg 94%
    01:00 +8°C° 0.3 mm 2 mps 597 mmHg 94%
    02:00 +8°C° 0.1 mm 2 mps 597 mmHg 94%
    03:00 +7°C° 0.1 mm 2 mps 596 mmHg 95%
    04:00 +7°C° 0.1 mm 2 mps 596 mmHg 95%
    05:00 +9°C° 0.1 mm 1 mps 596 mmHg 92%
    06:00 +10°C° 0.1 mm 1 mps 597 mmHg 89%
    07:00 +11°C° 0.1 mm 1 mps 598 mmHg 86%
    08:00 +13°C° 0.1 mm 1 mps 598 mmHg 79%
    09:00 +14°C° 0.1 mm 2 mps 599 mmHg 72%
    10:00 +16°C° 0.1 mm 2 mps 599 mmHg 64%
    11:00 +16°C° 0.5 mm 2 mps 599 mmHg 65%
    12:00 +17°C° 0.5 mm 2 mps 599 mmHg 67%
    13:00 +18°C° 0.5 mm 2 mps 599 mmHg 68%
    14:00 +17°C° 1 mm 2 mps 599 mmHg 71%
    15:00 +17°C° 1 mm 2 mps 598 mmHg 74%
    16:00 +17°C° 1 mm 2 mps 598 mmHg 77%
    17:00 +16°C° 0.8 mm 2 mps 597 mmHg 81%
    18:00 +15°C° 0.8 mm 1 mps 597 mmHg 86%
    19:00 +14°C° 0.8 mm 1 mps 597 mmHg 90%
    20:00 +13°C° 0.4 mm 1 mps 596 mmHg 92%
    21:00 +10°C° 0.4 mm 2 mps 596 mmHg 93%
    22:00 +9°C° 0.4 mm 2 mps 595 mmHg 95%
    23:00 +9°C° 0 mm 2 mps 595 mmHg 95%

    Day after tomorrow, 28 June, Wednesday

    Time Temperature Precipitation Wind Pressure Humidity
    00:00 +8°C° 0 mm 2 mps 594 mmHg 95%
    01:00 +8°C° 0 mm 2 mps 594 mmHg 95%
    02:00 +8°C° 0 mm 2 mps 594 mmHg 95%
    03:00 +8°C° 0 mm 2 mps 593 mmHg 95%
    04:00 +8°C° 0 mm 2 mps 593 mmHg 95%
    05:00 +9°C° 0 mm 3 mps 593 mmHg 93%
    06:00 +10°C° 0 mm 3 mps 594 mmHg 91%
    07:00 +11°C° 0 mm 3 mps 594 mmHg 89%
    08:00 +13°C° 0.3 mm 3 mps 594 mmHg 82%
    09:00 +14°C° 0.3 mm 3 mps 595 mmHg 75%
    10:00 +17°C° 0.3 mm 2 mps 595 mmHg 68%
    11:00 +17°C° 0.9 mm 3 mps 595 mmHg 67%
    12:00 +17°C° 0.9 mm 3 mps 595 mmHg 66%
    13:00 +17°C° 0.9 mm 3 mps 595 mmHg 66%
    14:00 +17°C° 1.3 mm 3 mps 594 mmHg 70%
    15:00 +16°C° 1.3 mm 3 mps 594 mmHg 75%
    16:00 +14°C° 1.3 mm 3 mps 593 mmHg 79%
    17:00 +13°C° 3.1 mm 3 mps 592 mmHg 85%
    18:00 +13°C° 3.1 mm 2 mps 591 mmHg 90%
    19:00 +12°C° 3.1 mm 2 mps 590 mmHg 95%
    20:00 +10°C° 1.7 mm 2 mps 590 mmHg 95%
    21:00 +9°C° 1.7 mm 2 mps 590 mmHg 95%
    22:00 +9°C° 1.7 mm 3 mps 589 mmHg 95%
    23:00 +8°C° 0.5 mm 3 mps 589 mmHg 95%

    29 June, Thursday

    Time Temperature Precipitation Wind Pressure Humidity
    00:00 +8°C° 0.5 mm 2 mps 588 mmHg 95%
    01:00 +7°C° 0.5 mm 2 mps 588 mmHg 95%
    02:00 +6°C° 0.4 mm 2 mps 587 mmHg 96%
    03:00 +5°C° 0.4 mm 2 mps 587 mmHg 96%
    04:00 +5°C° 0.4 mm 2 mps 586 mmHg 97%
    05:00 +6°C° 0.1 mm 2 mps 587 mmHg 94%
    06:00 +7°C° 0.1 mm 2 mps 588 mmHg 92%
    07:00 +8°C° 0.1 mm 2 mps 588 mmHg 90%
    08:00 +8°C° 0.6 mm 2 mps 589 mmHg 89%
    09:00 +8°C° 0.6 mm 2 mps 589 mmHg 88%
    10:00 +9°C° 0.6 mm 2 mps 589 mmHg 87%
    11:00 +9°C° 1.6 mm 2 mps 589 mmHg 88%
    12:00 +9°C° 1.6 mm 2 mps 590 mmHg 89%
    13:00 +9°C° 1.6 mm 2 mps 590 mmHg 90%
    14:00 +8°C° 2.6 mm 2 mps 590 mmHg 92%
    15:00 +8°C° 2.6 mm 2 mps 590 mmHg 93%
    16:00 +7°C° 2.6 mm 2 mps 590 mmHg 94%
    17:00 +7°C° 2.6 mm 2 mps 590 mmHg 95%
    18:00 +7°C° 2.6 mm 1 mps 590 mmHg 95%
    19:00 +7°C° 2.6 mm 1 mps 590 mmHg 96%
    20:00 +6°C° 0.8 mm 1 mps 590 mmHg 96%
    21:00 +5°C° 0.8 mm 1 mps 591 mmHg 97%
    22:00 +4°C° 0.8 mm 1 mps 591 mmHg 97%
    23:00 +4°C° 0.6 mm 1 mps 591 mmHg 97%

    30 June, Friday

    Time Temperature Precipitation Wind Pressure Humidity
    00:00 +4°C° 0.6 mm 1 mps 591 mmHg 97%
    01:00 +4°C° 0.6 mm 1 mps 592 mmHg 96%
    02:00 +4°C° 0.7 mm 1 mps 592 mmHg 96%
    03:00 +4°C° 0.7 mm 1 mps 592 mmHg 95%
    04:00 +4°C° 0.7 mm 1 mps 592 mmHg 95%
    05:00 +4°C° 0 mm 1 mps 592 mmHg 92%
    06:00 +5°C° 0 mm 1 mps 593 mmHg 90%
    07:00 +6°C° 0 mm 1 mps 594 mmHg 87%
    08:00 +7°C° 0.2 mm 1 mps 595 mmHg 81%
    09:00 +8°C° 0.2 mm 2 mps 595 mmHg 75%
    10:00 +9°C° 0.2 mm 2 mps 596 mmHg 69%
    11:00 +9°C° 0.7 mm 2 mps 596 mmHg 69%
    12:00 +10°C° 0.7 mm 3 mps 596 mmHg 70%
    13:00 +10°C° 0.7 mm 3 mps 596 mmHg 70%
    14:00 +10°C° 0.9 mm 3 mps 596 mmHg 72%
    15:00 +10°C° 0.9 mm 3 mps 596 mmHg 74%
    16:00 +9°C° 0.9 mm 3 mps 596 mmHg 76%
    17:00 +8°C° 0.7 mm 3 mps 596 mmHg 80%
    18:00 +7°C° 0.7 mm 2 mps 596 mmHg 84%
    19:00 +7°C° 0.7 mm 2 mps 595 mmHg 89%
    20:00 +6°C° 0.5 mm 1 mps 595 mmHg 91%
    21:00 +4°C° 0.5 mm 1 mps 595 mmHg 94%
    22:00 +3°C° 0.5 mm 1 mps 594 mmHg 96%
    23:00 +3°C° 0.2 mm 1 mps 594 mmHg 96%

    1 July, Saturday

    Time Temperature Precipitation Wind Pressure Humidity
    00:00 +2°C° 0.2 mm 1 mps 594 mmHg 95%
    01:00 +1°C° 0.2 mm 0 mps 594 mmHg 94%
    02:00 +1°C° 0.1 mm 0 mps 594 mmHg 94%
    03:00 +1°C° 0.1 mm 0 mps 594 mmHg 93%
    04:00 +1°C° 0.1 mm 1 mps 593 mmHg 92%
    05:00 +2°C° 0 mm 0 mps 594 mmHg 87%
    06:00 +4°C° 0 mm 0 mps 595 mmHg 83%
    07:00 +6°C° 0 mm 0 mps 596 mmHg 78%
    08:00 +9°C° 0.2 mm 1 mps 597 mmHg 73%
    09:00 +10°C° 0.2 mm 1 mps 597 mmHg 68%
    10:00 +11°C° 0.2 mm 1 mps 598 mmHg 63%
    11:00 +11°C° 0.7 mm 1 mps 598 mmHg 67%
    12:00 +11°C° 0.7 mm 1 mps 597 mmHg 70%
    13:00 +11°C° 0.7 mm 1 mps 597 mmHg 73%
    14:00 +10°C° 1.4 mm 1 mps 597 mmHg 77%
    15:00 +10°C° 1.4 mm 1 mps 597 mmHg 81%
    16:00 +9°C° 1.4 mm 1 mps 597 mmHg 85%
    17:00 +9°C° 1 mm 1 mps 597 mmHg 88%
    18:00 +8°C° 1 mm 1 mps 597 mmHg 92%
    19:00 +7°C° 1 mm 1 mps 597 mmHg 95%
    20:00 +6°C° 0.2 mm 1 mps 597 mmHg 95%
    21:00 +6°C° 0.2 mm 1 mps 597 mmHg 96%
    22:00 +5°C° 0.2 mm 1 mps 597 mmHg 96%
    23:00 +3°C° 0.4 mm 2 mps 597 mmHg 96%
    Show more